Kezdőlap
METAR-TAF:

METAR-TAF

Repülőterek :

Fairmont Municipal Airport

Fairmont, Minnesota, Amerikai Egyesült Államok

földrajzi szélesség: 43-39N, földrajzi hosszúság: 094-25W, magasság: 354 m

Jelenlegi meteorológiai megfigyelések

A jelentés 16 perccel ezelõtt készült, 11:56 UTC
Szélcsend
Hőmérséklet -16°C
Páratartalom 92%
Légköri nyomás 1028 hPa
Látótávolság: 16.1 km
Derült ég

METAR: KFRM 081156Z AUTO 00000KT 10SM CLR M16/M17 A3035 RMK AO2 SLP308 T11561172 11144 21161 56005 FZRANO

Idő: 06:12 (12:12 UTC)


TAF: hiányzik

Meteorológiai megfigyelések és előrejelzések több, mint 4000 repülőtéren (METAR és TAF jelentéseket).

A térképen piros és sárga pontok jelzik az elérhető meteorológiai állomásokat.

Mozgassa az egeret a pont fölött, hogy megjelenjen az állomás neve.

Azután kattintson az időjárási megfigyelések és előrejelzések megtekintéséhez.

A térkép megváltoztatása: kattintson a fekete keresztel jelölt zöld gombra ráközelítéshez, a vonallal jelölt zöld gombra távolításhoz, vagy a zöld nyilakra a szomszédos térképek eléréséhez.


METAR-TAF: